St. Petersburg, Russia

10:17 AM MSK on June 21, 2018 (GMT +0300)
Pulkovo

Weather History for ULLI - November, 2017

Change the Weather History Date:

Wednesday, November 15, 2017

  Actual Average Record
Temperature  
Mean Temperature 36 °F -  
Max Temperature 39 °F 33 °F 51 °F (2010)
Min Temperature 33 °F 24 °F 6 °F (1998)
Degree Days  
Heating Degree Days 29    
Moisture  
Dew Point 34 °F    
Average Humidity 90    
Maximum Humidity 93    
Minimum Humidity 76    
Precipitation  
Precipitation 0.02 in - - ()
Sea Level Pressure  
Sea Level Pressure 29.80 in    
Wind  
Wind Speed 7 mph ()    
Max Wind Speed 16 mph    
Max Gust Speed 18 mph    
Visibility 6.0 miles    
Events Rain    
Averages and records for this station are not official NWS values.
T = Trace of Precipitation, MM = Missing Value Source: Averaged Metar Reports

Daily Weather History Graph

Daily Weather History Graph

Search for Another Location

Airport or City:

Astronomy

Nov. 15, 2017 Rise Set
Actual Time 8:56 AM MSK 4:29 PM MSK
Civil Twilight 8:07 AM MSK 5:18 PM MSK
Nautical Twilight 7:15 AM MSK 6:10 PM MSK
Astronomical Twilight 6:26 AM MSK 6:59 PM MSK
Moon 4:31 AM MSK (11/15) 4:13 PM MSK (11/15)
Length of Visible Light 9h 10m
Length of Day
7h 32m
Waning Crescent, 9% of the Moon is Illuminated
Nov 15
Waning Crescent
Nov 18
New
Nov 26
First Quarter
Dec 3
Full
Dec 10
Last Quarter

Hourly Weather History & Observations

Time (MSK) Temp. Windchill Dew Point Humidity Pressure Visibility Wind Dir Wind Speed Gust Speed Precip Events Conditions
12:00 AM 36 °F - 34 °F 87% 29.81 in 6 mi WSW 6.7 mph - - Rain Light Rain
12:00 AM 35.6 °F 31.8 °F 33.8 °F 93% 29.80 in 6.2 mi WSW 4.5 mph - N/A   Overcast
12:30 AM 35.6 °F 30.0 °F 33.8 °F 93% 29.80 in 6.2 mi WSW 6.7 mph - N/A Rain Light Rain Showers
1:30 AM 35.6 °F 30.0 °F 33.8 °F 93% 29.80 in 6.2 mi WSW 6.7 mph - N/A   Overcast
2:00 AM 35.6 °F 28.7 °F 33.8 °F 93% 29.80 in 6.2 mi West 8.9 mph - N/A   Overcast
2:30 AM 35.6 °F 30.0 °F 33.8 °F 93% 29.80 in 6.2 mi WSW 6.7 mph - N/A Rain Light Rain Showers
3:00 AM 35 °F - 33 °F 90% 29.83 in 6 mi WSW 6.7 mph - -   Partly Cloudy
3:00 AM 35.6 °F 30.0 °F 33.8 °F 93% 29.80 in 6.2 mi WSW 6.7 mph - N/A   Mostly Cloudy
3:30 AM 35.6 °F 30.0 °F 32.0 °F 87% 29.83 in 6.2 mi WSW 6.7 mph - N/A   Mostly Cloudy
4:00 AM 35.6 °F 30.0 °F 32.0 °F 87% 29.83 in 6.2 mi WSW 6.7 mph - N/A   Mostly Cloudy
4:30 AM 35.6 °F 30.0 °F 32.0 °F 87% 29.83 in 6.2 mi WSW 6.7 mph - N/A   Mostly Cloudy
5:00 AM 35.6 °F 31.8 °F 32.0 °F 87% 29.83 in 6.2 mi SW 4.5 mph - N/A   Mostly Cloudy
5:30 AM 35.6 °F 31.8 °F 32.0 °F 87% 29.83 in 6.2 mi SW 4.5 mph - N/A   Mostly Cloudy
6:00 AM 35 °F - 32 °F 85% 29.84 in 6 mi SW 6.7 mph - -   Overcast
6:00 AM 35.6 °F 30.0 °F 32.0 °F 87% 29.83 in 6.2 mi SW 6.7 mph - N/A   Mostly Cloudy
6:30 AM 35.6 °F 30.0 °F 32.0 °F 87% 29.83 in 6.2 mi WSW 6.7 mph - N/A   Overcast
7:00 AM 33.8 °F 27.9 °F 32.0 °F 93% 29.83 in 6.2 mi SW 6.7 mph - N/A   Overcast
7:30 AM 33.8 °F 29.7 °F 32.0 °F 93% 29.83 in 6.2 mi SW 4.5 mph 15.7 mph N/A   Overcast
8:00 AM 33.8 °F 26.5 °F 32.0 °F 93% 29.83 in 6.2 mi SW 8.9 mph - N/A   Mostly Cloudy
8:30 AM 33.8 °F 26.5 °F 32.0 °F 93% 29.83 in 6.2 mi SW 8.9 mph - N/A   Mostly Cloudy
9:00 AM 35.6 °F 27.7 °F 32.0 °F 87% 29.83 in 6.2 mi SW 11.2 mph - N/A   Mostly Cloudy
9:30 AM 35.6 °F 27.7 °F 33.8 °F 93% 29.83 in 6.2 mi SW 11.2 mph - N/A   Mostly Cloudy
10:00 AM 35.6 °F 27.7 °F 33.8 °F 93% 29.83 in 6.2 mi SW 11.2 mph - N/A   Mostly Cloudy
10:30 AM 35.6 °F 27.7 °F 33.8 °F 93% 29.83 in 6.2 mi SSW 11.2 mph - N/A   Mostly Cloudy
11:00 AM 35.6 °F 27.7 °F 33.8 °F 93% 29.83 in 6.2 mi SSW 11.2 mph - N/A   Scattered Clouds
11:30 AM 35.6 °F 27.7 °F 32.0 °F 87% 29.83 in 6.2 mi SSW 11.2 mph - N/A   Mostly Cloudy
12:00 PM 37 °F - 32 °F 76% 29.83 in 6 mi SSW 6.7 mph - -   Overcast
12:00 PM 35.6 °F 26.8 °F 32.0 °F 87% 29.83 in 6.2 mi South 13.4 mph - N/A   Mostly Cloudy
12:30 PM 35.6 °F 26.8 °F 32.0 °F 87% 29.83 in 6.2 mi South 13.4 mph - N/A   Mostly Cloudy
1:00 PM 35.6 °F 27.7 °F 33.8 °F 93% 29.80 in 6.2 mi South 11.2 mph - N/A   Mostly Cloudy
1:30 PM 37.4 °F 28.3 °F 33.8 °F 87% 29.80 in 6.2 mi South 15.7 mph - N/A   Mostly Cloudy
2:00 PM 37.4 °F 28.3 °F 33.8 °F 87% 29.80 in 6.2 mi SSW 15.7 mph - N/A   Mostly Cloudy
2:30 PM 35.6 °F 26.8 °F 33.8 °F 93% 29.80 in 6.2 mi SSW 13.4 mph - N/A Rain Light Rain Showers
3:00 PM 38 °F - 33 °F 77% 29.80 in 2 mi SSW 6.7 mph - - Rain Light Rain
3:00 PM 37.4 °F 32.2 °F 33.8 °F 87% 29.80 in 6.2 mi SSW 6.7 mph 17.9 mph N/A   Overcast
3:30 PM 37.4 °F 29.1 °F 33.8 °F 87% 29.80 in 6.2 mi SSW 13.4 mph - N/A   Overcast
4:00 PM 37.4 °F 29.1 °F 33.8 °F 87% 29.77 in 6.2 mi SSW 13.4 mph - N/A   Overcast
4:30 PM 37.4 °F 29.1 °F 35.6 °F 93% 29.77 in 6.2 mi SSW 13.4 mph - N/A Rain Light Rain Showers
5:00 PM 37.4 °F 29.1 °F 35.6 °F 93% 29.77 in 6.2 mi SSW 13.4 mph - N/A   Overcast
5:30 PM 37.4 °F 29.1 °F 35.6 °F 93% 29.77 in 6.2 mi SSW 13.4 mph - N/A   Overcast
6:00 PM 38 °F - 35 °F 85% 29.77 in 2 mi SW 6.7 mph - - Rain Light Rain
6:00 PM 37.4 °F 29.9 °F 35.6 °F 93% 29.77 in 6.2 mi SW 11.2 mph - N/A   Overcast
6:30 PM 37.4 °F 29.1 °F 35.6 °F 93% 29.77 in 5.6 mi SW 13.4 mph - N/A Rain Light Rain Showers
7:00 PM 37.4 °F 30.9 °F 35.6 °F 93% 29.77 in 6.2 mi WSW 8.9 mph - N/A   Overcast
8:00 PM 37.4 °F 33.9 °F 33.8 °F 87% 29.77 in 6.2 mi WSW 4.5 mph - N/A   Mostly Cloudy
8:30 PM 37.4 °F 32.2 °F 35.6 °F 93% 29.77 in 6.2 mi WSW 6.7 mph - N/A Rain Light Rain Showers
9:00 PM 38 °F - 34 °F 81% 29.77 in 6 mi SW 6.7 mph - - Rain Light Rain
9:00 PM 37.4 °F 32.2 °F 35.6 °F 93% 29.74 in 6.2 mi SW 6.7 mph - N/A   Mostly Cloudy
9:30 PM 37.4 °F 32.2 °F 35.6 °F 93% 29.74 in 6.2 mi WSW 6.7 mph 17.9 mph N/A   Mostly Cloudy
10:00 PM 37.4 °F 32.2 °F 35.6 °F 93% 29.74 in 6.2 mi WSW 6.7 mph - N/A Rain Light Rain Showers
10:30 PM 37.4 °F 33.9 °F 35.6 °F 93% 29.74 in 6.2 mi WSW 4.5 mph - N/A   Mostly Cloudy
11:00 PM 39.2 °F 34.4 °F 35.6 °F 87% 29.74 in 6.2 mi WSW 6.7 mph - N/A   Overcast
11:30 PM 37.4 °F 33.9 °F 35.6 °F 93% 29.74 in 6.2 mi SW 4.5 mph - N/A   Overcast